Home > Weather > Belém > Past weeks

Flag for Brazil Weather for the Past 2 Weeks in Belém, Pará, Brazil

Now
82 °F

Passing clouds.


Feels Like: 91 °F
Forecast: N/A
Wind: 3 mph from Northeast

Location: Belem Aeroporto

Current Time: Feb 9, 2016 at 8:23:11 PM

Latest Report: Feb 9, 2016 at 7:00 PM


Visibility: N/A

Pressure: 29.86 "Hg

Humidity: 84%

Dew point: 77 °F

Location of BelémLocation

Historic Weather in Belém — Graph

°F

Belém Temperature Yesterday

Maximum temperature yesterday: 88 °F (at 11:00 AM)
Minimum temperature yesterday: 77 °F (at 2:00 AM)
Average temperature yesterday: 79 °F

High & Low Weather Summary for the Past Weeks

 TemperatureHumidityPressure
High91 °F (Feb 9, 1:00 PM)100% (Feb 4, 6:00 AM)29.98 "Hg (Feb 4, 6:00 AM)
Low41 °F (Feb 5, 3:00 PM)56% (Feb 9, 1:00 PM)29.77 "Hg (Feb 3, 5:00 PM)
Average78 °F86%29.88 "Hg
* Reported Jan 25 6:00 PM — Feb 9 6:00 PM, Belém, Weather by CustomWeather, © 2016

Note: Actual official high and low records may vary slightly from our data, if they occured in-between our weather recording intervals... More about our weather records

Advertising

Belém Weather History for the Previous 24 Hours

 ConditionsComfort  
Time TempWeatherWind HumidityBarometerVisibility
6:00 PM
Tue, Feb 9
82 °FScattered clouds.7 mph84%29.83 "HgN/A
5:00 PM82 °FScattered clouds.2 mph84%29.83 "HgN/A
4:00 PM86 °FScattered showers. Partly sunny.7 mph75%29.83 "HgN/A
3:00 PM91 °FPartly sunny.8 mph56%29.86 "HgN/A
2:00 PM91 °FScattered clouds.10 mph56%29.89 "HgN/A
1:00 PM91 °FPartly sunny.12 mph56%29.92 "HgN/A
12:00 PM88 °FScattered clouds.12 mph62%29.95 "HgN/A
11:00 AM88 °FPartly sunny.13 mph66%29.95 "HgN/A
10:00 AM84 °FPartly sunny.12 mph74%29.95 "HgN/A
9:00 AM82 °FScattered clouds.10 mph79%29.95 "HgN/A
8:00 AM79 °FPassing clouds.8 mph89%29.92 "HgN/A
7:00 AM75 °FScattered clouds.2 mph94%29.89 "Hg10 mi
6:00 AM75 °FClear.3 mph94%29.89 "Hg10 mi
5:00 AM75 °FClear.2 mph94%29.89 "Hg10 mi
4:00 AM77 °FPassing clouds.3 mph89%29.86 "HgN/A
3:00 AM77 °FPassing clouds.3 mph89%29.89 "HgN/A
2:00 AM77 °FClear.No wind89%29.89 "Hg10 mi
1:00 AM77 °FClear.10 mph89%29.89 "Hg10 mi
12:00 AM77 °FClear.7 mph89%29.92 "Hg10 mi
11:00 PM
Mon, Feb 8
77 °FPassing clouds.9 mph89%29.92 "HgN/A
10:00 PM77 °FPassing clouds.8 mph89%29.95 "HgN/A
9:00 PM77 °FPartly cloudy.9 mph89%29.95 "HgN/A
8:00 PM77 °FPassing clouds.9 mph89%29.92 "HgN/A
Weather by CustomWeather, © 2016

See weather overviewHow to use our weather pages